{"data":{"norad_id":67463,"intl_designator":"2026-008U","name":"STARLINK-36505","alt_names":[],"object_type":"PAYLOAD","status":"ACTIVE","operator":null,"country":"US","launch_date":"2026-01-14","launch_site_code":"AFETR","launch_vehicle":null,"mission":null,"orbit_class":"UNKNOWN","rcs_meters":null,"size_class":null,"mass_kg":null,"dimensions":null,"purposes":["comms"],"wikipedia_slug":null,"has_3d_model":false,"image_url":null,"decayed_at":null,"tle_current":{"epoch":"2026-09-19T05:39:11.332512Z","epoch_age_seconds":181458,"freshness":"STALE","line1":"1 67463U 26008U   26262.23554783  .00011018  00000+0  40918-3 0  9992","line2":"2 67463  42.9972 192.0770 0000895 277.3394  82.7355 15.27590113 39178","mean_motion":15.27590113,"eccentricity":8.95e-5,"inclination_deg":42.9972,"raan_deg":192.077,"arg_perigee_deg":277.3394,"mean_anomaly_deg":82.7355,"bstar":0.00040918,"rev_number":3917,"period_min":94.266124645964,"perigee_km":482.40474080121,"apogee_km":483.63288769196,"semimajor_km":6861.1558142466,"source":"CELESTRAK","updated_at":"2026-09-20T09:00:43.551659Z"}}}